www.pogodaiklimat.ru

Погода и климат >> Архив погоды >> Украина >> Конотоп


АРХИВ ПОГОДЫ в Конотопе

Время (UTC), дата Ветер
(напр.,м/с)
 
Видим.   Явления Облачность Т
(С)
Тd
(С)
f
(%)
Тe
(С)
Тes
(С)
Комфортность P
(гПа)
Po
(гПа)
Тmin
(С)
Tmax
(С)
R
(мм)
R24
(мм)
S
(см)
12 13.08 Ю 6 20 км 8/3 600 м
[Cu med, cong Ac cast Ci fib]
+31.9 +17.2 41 +35 +37 очень
душно
1012.5 995.9
15 13.08 Ю 2 20 км ясно +31.9 +17.4 42 +36 +38 очень
душно
1010.5 993.9
18 13.08 Ю 1 10 км 5/3 600 м
[Cb cap Ac trans Ci fib]
+27.1 +19.4 63 +33 +33 очень
душно
1011.6 994.8 +32.6
21 13.08 З 1 10 км в посл. час ливневой дождь 10/10 700 м
[Cb cap]
+24.5 +19.4 73 +30 +30 очень
душно
1012.7 995.7
00 14.08 штиль 0 10 км гроза без осадков {ливн. осадки} 10/10 700 м
[Cb cap]
+22.3 +19.3 83 +28 +28 душно 1013.0 995.7
03 14.08 СВ 2 4000 м в посл. час гроза {ливн. осадки} 9/6 600 м
[Cb cap Ac trans Ci fib]
+21.0 +19.7 92 +27 +27 душно 1012.2 995.0
06 14.08 В 1 10 км {гроза, ливн. осадки} 4/0
[Ac trans Ci fib]
+24.1 +19.6 76 +29 +35 душно 1014.1 997.1 +20.9 0.4
09 14.08 ЮВ 1 20 км 6/4 600 м
[Cu med, cong Ac trans Ci fib]
+28.8 +19.0 55 +34 +42 очень
душно
1012.7 996.0
12 14.08 ЮВ 2 20 км 8/3 600 м
[Cu med, cong Ac trans Ci fib]
+31.1 +19.7 51 +37 +42 очень
душно
1011.2 994.6
15 14.08 Ю 3 20 км 8/3 600 м
[Cb cap Ac trans Ci fib]
+31.6 +18.5 46 +36 +37 очень
душно
1009.6 993.0
18 14.08 штиль 0 10 км 5/0
[Ci fib]
+26.5 +17.8 59 +31 +31 душно 1009.2 992.4 +32.3
21 14.08 Ю 2 10 км ясно +23.2 +16.4 66 +28 +28 душно 1009.7 992.6
00 15.08 Ю 1 10 км ясно +20.4 +14.6 69 +24 +24 комфорт 1009.4 992.3
03 15.08 штиль 0 10 км ясно +18.3 +13.9 76 +19 +19 тепло 1009.4 992.1
06 15.08 ЮВ 1 10 км 8/0
[Ci fib]
+21.8 +13.9 61 +25 +30 комфорт 1009.9 992.7 +18.1
09 15.08 ЮВ 1 20 км 5/0
[Cc]
+25.1 +16.5 59 +29 +43 душно 1009.6 992.6
12 15.08 СЗ 5 10 км 10/0
[Ac trans Ci fib]
+25.5 +17.5 61 +30 +34 душно 1009.2 992.3
15 15.08 СЗ 5 20 км 9/0
[Ac trans Ci fib]
+25.5 +16.4 57 +29 +30 душно 1009.1 992.2
18 15.08 СЗ 1 10 км 9/0
[Ac As Cs]
+20.2 +15.0 72 +24 +24 комфорт 1010.4 993.2 +26.9
21 15.08 СЗ 3 10 км 9/0
[Ac As Cs]
+17.9 +14.6 81 +18 +18 по сезону 1010.0 992.6
00 16.08 С 3 10 км 9/5 600 м
[Sc Ac trans Ci fib]
+16.3 +13.6 84 +16 +16 по сезону 1010.0 992.5
03 16.08 С 1 4000 м дымка 9/1 1000 м
[Sc Ac trans Ci fib]
+14.8 +13.1 90 +15 +15 по сезону 1009.1 991.6
06 16.08 С 1 10 км 10/10 600 м
[Sc Ac cast Cs]
+17.2 +14.0 81 +18 +18 по сезону 1009.2 991.9 +14.7
09 16.08 С 3 10 км 10/10 600 м
[Sc Ac cast Cs]
+18.8 +15.1 79 +20 +20 по сезону 1009.2 992.0
12 16.08 СЗ 3 10 км 10/10 600 м
[Sc Ac cast Cs]
+20.0 +15.2 74 +23 +23 комфорт 1009.2 992.0
15 16.08 СЗ 5 10 км 9/9 900 м
[Sc]
+19.6 +14.9 74 +21 +21 комфорт 1009.5 992.3
18 16.08 СЗ 3 10 км 9/9 600 м
[Sc]
+17.5 +14.3 81 +18 +18 по сезону 1010.5 993.1 +20.8
21 16.08 СЗ 5 10 км 10/10 720 м
[Sc]
+16.9 +14.6 86 +16 +16 по сезону 1010.2 992.8
00 17.08 СЗ 5 4000 м дымка 10/10 630 м
[Cb cap]
+15.7 +14.5 93 +14 +14 по сезону 1010.3 992.8
03 17.08 С 5 4000 м дымка {ливн. осадки} 10/10 630 м
[Sc]
+15.5 +14.3 93 +14 +14 прохладно 1009.7 992.2
06 17.08 СЗ 5 4000 м дымка {ливн. осадки} 10/10 800 м
[Sc]
+15.7 +13.9 89 +14 +14 прохладно 1010.1 992.6 +15.4 0.0
09 17.08 СЗ 5 10 км 10/10 840 м
[Sc]
+17.3 +14.7 85 +17 +17 холодно 1010.2 992.8
12 17.08 СЗ 3 10 км 10/10 720 м
[Cb cap]
+17.3 +14.5 84 +17 +17 очень
холодно
1010.3 992.9
15 17.08 СЗ 3 4000 м в посл. час ливневой дождь 10/10 420 м
[Cb cap]
+16.1 +15.1 94 +16 +16 холодно 1010.8 993.3
18 17.08 штиль 0 4000 м дымка {ливн. осадки} 10/10 570 м
[Cb cap]
+15.5 +14.4 93 +15 +15 прохладно 1011.0 993.5 +17.7 0.0
21 17.08 штиль 0 4000 м дымка 10/10 540 м
[Cb cap]
+15.3 +13.9 91 +15 +15 прохладно 1010.7 993.1
00 18.08 штиль 0 1000 м пыльные вихри {ливн. осадки} 10/10 570 м
[Cb cap]
+14.8 +13.7 93 +14 +14 по сезону 1011.2 993.6
03 18.08 СЗ 1 4000 м дымка {ливн. осадки} 10/10 600 м
[Sc]
+14.4 +13.3 93 +15 +15 по сезону 1011.1 993.5
06 18.08 СВ 1 10 км {ливн. осадки} 10/10 660 м
[Sc]
+15.3 +12.9 86 +16 +16 прохладно 1011.7 994.1 +14.3 0.0
09 18.08 Ю 5 10 км 9/9 600 м
[Cb cap]
+18.7 +12.8 69 +19 +20 прохладно 1012.0 994.6
12 18.08 Ю 5 10 км 10/10 720 м
[Sc]
+20.5 +13.0 62 +23 +23 комфорт 1012.8 995.5
15 18.08 СЗ 3 10 км 9/8 600 м
[Sc Ci fib]
+20.6 +12.9 61 +23 +24 комфорт 1014.1 996.8
18 18.08 штиль 0 10 км 10/10 900 м
[Sc]
+19.1 +15.2 78 +20 +20 тепло 1015.6 998.2 +21.3
21 18.08 штиль 0 10 км 8/6 960 м
[Sc Ac trans]
+16.9 +14.8 87 +17 +17 по сезону 1016.3 998.8
00 19.08 штиль 0 4000 м дымка ясно +14.7 +13.6 93 +14 +14 по сезону 1017.4 999.7
03 19.08 штиль 0 4000 м дымка 3/0
[Ci fib]
+12.7 +11.9 95 +12 +12 прохладно 1018.7 1000.8
06 19.08 штиль 0 10 км ясно +19.7 +12.4 63 +21 +28 комфорт 1019.6 1002.1 +12.5
09 19.08 ЮВ 1 20 км 3/1 600 м
[Cu med, cong Ci fib]
+24.6 +11.1 43 +26 +39 жарко 1019.3 1002.1
12 19.08 З 1 20 км 1/1 600 м
[Cu med, cong]
+27.1 +11.1 37 +28 +39 жарко 1018.7 1001.7
15 19.08 СВ 1 20 км 1/1 600 м
[Cu hum]
+27.4 +11.1 36 +28 +30 жарко 1019.0 1002.0
18 19.08 штиль 0 10 км ясно +20.1 +13.3 65 +22 +22 комфорт 1020.3 1002.9 +27.7
21 19.08 штиль 0 10 км ясно +16.0 +13.3 84 +16 +16 по сезону 1021.0 1003.3
00 20.08 штиль 0 4000 м дымка ясно +14.0 +12.7 92 +14 +14 по сезону 1021.7 1003.9
03 20.08 штиль 0 4000 м дымка ясно +13.1 +12.0 93 +13 +13 прохладно 1022.6 1004.7
06 20.08 штиль 0 10 км ясно +22.5 +15.3 64 +26 +34 жарко 1022.9 1005.6 +12.8
09 20.08 ЮВ 2 20 км 1/1 600 м
[Cu med, cong]
+28.1 +12.8 39 +30 +41 жарко 1022.5 1005.5

 

Местоположение метеостанции Конотоп (Сумская область, Украина): широта 51.23 долгота 33.20 высота над уровнем моря 149 м.

В архиве по умолчанию представлена погода в Конотопе за последнюю неделю. Архивные данные за месяц целиком и за предыдущие месяцы, начиная с января 2011 года, Вы можете получить, выбрав интересующий диапазон дат из раскрывающегося списка и нажав кнопку "Ввод!".


*Определитесь, кто Вы:
робот инопланетянин человек

Внимание! Время в таблицах - всемирное. Для получения местного времени необходимо прибавить поправку, которая равна 2 ч.

Смотрите также архив погоды в соседних городах и на ближайших метеорологических станциях:

Погода в Ромнах (Сумская область, Украина) (54 км)
Погода в Глухове (Сумская область, Украина) (71 км)
Погода в Покошичах (Черниговская область, Украина) (89 км)
Погода в Прилуках (Черниговская область, Украина) (92 км)
Погода в Нежине (Черниговская область, Украина) (93 км)
Погода в Дружбе (Сумская область, Украина) (105 км)
Погода в Щорсе (Черниговская область, Украина) (106 км)
Погода в Рыльск (Курская область, Россия) (109 км)
Погода в Гадяче (Полтавская область, Украина) (110 км)
Погода в Сумах (Сумская область, Украина) (111 км)

Пояснения к столбцам:

Ветер - указаны скорость ветра в м/с - средняя за 10 мин, порывы в срок и между сроками (в фигурных скобках) и направление, откуда дует ветер: С - северный, СВ - северо-восточный, В - восточный, ЮВ - юго-восточный, Ю - южный, ЮЗ - юго-западный, З - западный, СЗ - северо-западный.
Видимость - горизонтальная дальность видимости в метрах или километрах. При видимости от 1 до 10 км при отсутствии осадков обычно наблюдается дымка, при ухудшении видимости до 1 км и менее - туман. В сухую погоду видимость может ухудшаться дымом, пылью или мглою.
Явления - указаны атмосферные явления, наблюдавшиеся в срок или в последний час перед сроком; фигурными скобками обозначены явления, наблюдавшиеся между сроками (за 1-3 часа до срока); квадратными скобками обозначены град или гололедные отложения с указанием их диаметра в мм.
Облачность - указаны через наклонную черту общая и нижняя облачность в баллах и высота нижней границы облаков в метрах; квадратными скобками обозначены формы облаков: Ci - перистые, Cs - перисто-слоистые, Cc - перисто-кучевые, Ac - высококучевые, As - высокослоистые, Sc - слоисто-кучевые, Ns - слоисто-дождевые, Cu - кучевые, Cb - кучево-дождевые. Подробнее классификацию облаков см. в Атласе облаков (PDF).
T - Температура воздуха - температура, измеренная на высоте 2 м над землей.
Td - Температура точки росы - температура, при понижении до которой содержащийся в воздухе водяной пар достигнет насыщения.
f - Относительная влажность воздуха - влажноcть воздуха, измеренная на высоте 2 м над землей.
Te - Эффективная температура - температура, которую ощущает одетый по сезону человек в тени. Характеристика душности погоды. При расчете учитывается влияние влажности воздуха и скорости ветра на теплоощущения человека.
Tes - Эффективная температура на солнце - температура, которую ощущает человек, с поправкой на солнечный нагрев. Характеристика знойности погоды. Зависит от высоты солнца над горизонтом, облачности и скорости ветра. Ночью, в пасмурную погоду, а также при ветре 12 м/с и более поправка равна нулю.
P - Атмосферное давление - приведенное к уровню моря атмосферное давление.
Po - Атмосферное давление - измеренное на уровне метеостанции атмосферное давление.
Tmin - Минимальная температура - минимум температуры воздуха на высоте 2 м над землей.
Tmax - Максимальная температура - максимум температуры воздуха на высоте 2 м над землей.
R - Количество осадков - Количество выпавших осадков за период времени, мм. При наведении курсора мыши на число - период времени, за который выпало указанное количество осадков.
R24 - Количество осадков - Количество выпавших осадков за 24 часа, мм.
S - Снежный покров - Высота снежного покрова, см. При наведении курсора мыши на число - состояние снежного покрова и степень покрытия местности в баллах.